| time (UTC) | temp C | wind direction | speed KPH | gust KPH | rain 1hr cm | rain 24hr cm | rain mn cm | humidity % | barometer mb |
| 20260505051122 | 15 | 277 | 3.2 | 6.4 | 0.00 | 0.00 | 0.00 | 67 | 1016.2 |
| 20260505050134 | 13 | 242 | 1.6 | 6.4 | 0.00 | 0.00 | 0.00 | 68 | 1016.2 |
| 20260505041140 | 14 | 222 | 0.0 | 0.0 | 0.00 | 0.00 | 0.00 | 63 | 1016.4 |
| 20260505040134 | 14 | 222 | 0.0 | 0.0 | 0.00 | 0.00 | 0.00 | 62 | 1016.4 |
| 20260505035122 | 14 | 222 | 0.0 | 0.0 | 0.00 | 0.00 | 0.00 | 62 | 1016.4 |
| 20260505034135 | 14 | 222 | 0.0 | 0.0 | 0.00 | 0.00 | 0.00 | 62 | 1016.4 |
| 20260505033132 | 14 | 222 | 0.0 | 0.0 | 0.00 | 0.00 | 0.00 | 62 | 1016.4 |
| 20260505032125 | 15 | 222 | 0.0 | 0.0 | 0.00 | 0.00 | 0.00 | 61 | 1016.4 |
| 20260505031118 | 15 | 222 | 0.0 | 0.0 | 0.00 | 0.00 | 0.00 | 59 | 1016.4 |
| 20260505030128 | 15 | 222 | 0.0 | 0.0 | 0.00 | 0.00 | 0.00 | 59 | 1016.4 |
| 20260505025123 | 15 | 222 | 0.0 | 0.0 | 0.00 | 0.00 | 0.00 | 59 | 1016.4 |
| 20260505024117 | 15 | 222 | 0.0 | 0.0 | 0.00 | 0.00 | 0.00 | 57 | 1016.3 |
| 20260505023130 | 16 | 222 | 0.0 | 0.0 | 0.00 | 0.00 | 0.00 | 57 | 1016.3 |
| 20260505022128 | 16 | 222 | 0.0 | 0.0 | 0.00 | 0.00 | 0.00 | 58 | 1016.2 |
| 20260505021120 | 16 | 222 | 0.0 | 0.0 | 0.00 | 0.00 | 0.00 | 55 | 1016.3 |
| 20260505020132 | 16 | 222 | 0.0 | 0.0 | 0.00 | 0.00 | 0.00 | 55 | 1016.2 |
| 20260505015122 | 17 | 222 | 0.0 | 0.0 | 0.00 | 0.00 | 0.00 | 56 | 1016.0 |
| 20260505014139 | 17 | 222 | 0.0 | 0.0 | 0.00 | 0.00 | 0.00 | 54 | 1016.0 |
| 20260505013131 | 17 | 222 | 0.0 | 0.0 | 0.00 | 0.00 | 0.00 | 54 | 1015.9 |
| 20260505012124 | 17 | 222 | 0.0 | 0.0 | 0.00 | 0.00 | 0.00 | 52 | 1015.6 |
| 20260505011117 | 18 | 222 | 0.0 | 0.0 | 0.00 | 0.00 | 0.00 | 52 | 1015.5 |
| 20260505010133 | 18 | 222 | 0.0 | 0.0 | 0.00 | 0.00 | 0.00 | 51 | 1015.4 |
| 20260505005125 | 19 | 222 | 0.0 | 0.0 | 0.00 | 0.00 | 0.00 | 50 | 1015.3 |
| 20260505004139 | 20 | 222 | 0.0 | 0.0 | 0.00 | 0.00 | 0.00 | 48 | 1015.2 |
| 20260505003150 | 20 | 222 | 0.0 | 0.0 | 0.00 | 0.00 | 0.00 | 47 | 1015.2 |
| 20260505002127 | 21 | 222 | 0.0 | 0.0 | 0.00 | 0.00 | 0.00 | 45 | 1015.0 |
| 20260505001121 | 21 | 222 | 0.0 | 0.0 | 0.00 | 0.00 | 0.00 | 44 | 1015.1 |
| 20260505000133 | 22 | 222 | 0.0 | 0.0 | 0.00 | 0.00 | 0.00 | 44 | 1014.9 |
| 20260504235144 | 22 | 222 | 0.0 | 0.0 | 0.00 | 0.00 | 0.00 | 43 | 1014.9 |
| 20260504234119 | 23 | 222 | 0.0 | 1.6 | 0.00 | 0.00 | 0.00 | 40 | 1014.9 |
| 20260504233131 | 23 | 222 | 0.0 | 3.2 | 0.00 | 0.00 | 0.00 | 39 | 1014.8 |
| 20260504232123 | 23 | 184 | 0.0 | 3.2 | 0.00 | 0.00 | 0.00 | 38 | 1014.9 |
| 20260504231120 | 24 | 186 | 0.0 | 1.6 | 0.00 | 0.00 | 0.00 | 39 | 1014.8 |
| 20260504230130 | 24 | 186 | 1.6 | 3.2 | 0.00 | 0.00 | 0.00 | 37 | 1014.7 |
| 20260504225121 | 24 | 261 | 1.6 | 6.4 | 0.00 | 0.00 | 0.00 | 38 | 1014.8 |
| 20260504224132 | 25 | 223 | 1.6 | 4.8 | 0.00 | 0.00 | 0.00 | 37 | 1014.8 |
| 20260504223148 | 25 | 292 | 3.2 | 8.0 | 0.00 | 0.00 | 0.00 | 36 | 1014.8 |
| 20260504222119 | 25 | 136 | 1.6 | 6.4 | 0.00 | 0.00 | 0.00 | 37 | 1014.8 |
| 20260504221133 | 25 | 300 | 1.6 | 6.4 | 0.00 | 0.00 | 0.00 | 38 | 1014.7 |
| 20260504220146 | 25 | 316 | 1.6 | 9.7 | 0.00 | 0.00 | 0.00 | 38 | 1014.8 |
| 20260504215118 | 25 | 219 | 3.2 | 6.4 | 0.00 | 0.00 | 0.00 | 38 | 1014.8 |
| 20260504214131 | 25 | 76 | 1.6 | 8.0 | 0.00 | 0.00 | 0.00 | 37 | 1014.7 |
| 20260504213124 | 25 | 278 | 3.2 | 9.7 | 0.00 | 0.00 | 0.00 | 37 | 1014.7 |
| 20260504212122 | 25 | 287 | 3.2 | 9.7 | 0.00 | 0.00 | 0.00 | 37 | 1014.7 |
| 20260504211133 | 25 | 233 | 1.6 | 8.0 | 0.00 | 0.00 | 0.00 | 38 | 1014.7 |
| 20260504210126 | 25 | 337 | 1.6 | 8.0 | 0.00 | 0.00 | 0.00 | 36 | 1014.7 |
| 20260504205114 | 25 | 244 | 4.8 | 9.7 | 0.00 | 0.00 | 0.00 | 37 | 1014.8 |
| 20260504204130 | 25 | 295 | 6.4 | 11.3 | 0.00 | 0.00 | 0.00 | 37 | 1014.8 |
| 20260504203143 | 25 | 190 | 4.8 | 8.0 | 0.00 | 0.00 | 0.00 | 39 | 1014.9 |
| 20260504202116 | 25 | 278 | 4.8 | 9.7 | 0.00 | 0.00 | 0.00 | 39 | 1015.0 |
| 20260504201128 | 25 | 284 | 6.4 | 12.9 | 0.00 | 0.00 | 0.00 | 38 | 1015.1 |
| 20260504200143 | 25 | 291 | 3.2 | 8.0 | 0.00 | 0.00 | 0.00 | 38 | 1015.2 |
| 20260504195132 | 25 | 307 | 0.0 | 6.4 | 0.00 | 0.00 | 0.00 | 38 | 1015.3 |
| 20260504194123 | 25 | 213 | 1.6 | 9.7 | 0.00 | 0.00 | 0.00 | 39 | 1015.4 |
| 20260504193115 | 25 | 209 | 3.2 | 8.0 | 0.00 | 0.00 | 0.00 | 39 | 1015.7 |
| 20260504192132 | 25 | 254 | 3.2 | 9.7 | 0.00 | 0.00 | 0.00 | 37 | 1015.9 |
| 20260504191125 | 25 | 159 | 3.2 | 9.7 | 0.00 | 0.00 | 0.00 | 37 | 1016.0 |
| 20260504190119 | 25 | 273 | 1.6 | 12.9 | 0.00 | 0.00 | 0.00 | 38 | 1016.1 |
| 20260504185128 | 25 | 123 | 4.8 | 12.9 | 0.00 | 0.00 | 0.00 | 37 | 1016.2 |
| 20260504184125 | 25 | 167 | 3.2 | 4.8 | 0.00 | 0.00 | 0.00 | 37 | 1016.1 |
| 20260504183118 | 25 | 144 | 3.2 | 8.0 | 0.00 | 0.00 | 0.00 | 37 | 1016.3 |
| 20260504182130 | 24 | 112 | 1.6 | 8.0 | 0.00 | 0.00 | 0.00 | 38 | 1016.3 |
| 20260504181128 | 23 | 181 | 4.8 | 11.3 | 0.00 | 0.00 | 0.00 | 38 | 1016.4 |
| 20260504180122 | 23 | 269 | 4.8 | 12.9 | 0.00 | 0.00 | 0.00 | 38 | 1016.5 |
| 20260504175133 | 23 | 307 | 9.7 | 14.5 | 0.00 | 0.00 | 0.00 | 38 | 1016.7 |
| 20260504174124 | 23 | 288 | 1.6 | 11.3 | 0.00 | 0.00 | 0.00 | 38 | 1016.6 |
| 20260504173122 | 23 | 194 | 1.6 | 11.3 | 0.00 | 0.00 | 0.00 | 41 | 1016.6 |
| 20260504172115 | 22 | 133 | 3.2 | 16.1 | 0.00 | 0.00 | 0.00 | 38 | 1016.9 |
| 20260504171129 | 22 | 254 | 3.2 | 9.7 | 0.00 | 0.00 | 0.00 | 39 | 1016.9 |
| 20260504170124 | 22 | 279 | 4.8 | 9.7 | 0.00 | 0.00 | 0.00 | 40 | 1016.9 |
| 20260504160118 | 21 | 285 | 6.4 | 11.3 | 0.00 | 0.00 | 0.00 | 43 | 1018.3 |
| 20260504151121 | 20 | 296 | 1.6 | 8.0 | 0.00 | 0.00 | 0.00 | 46 | 1018.4 |
| 20260504150116 | 19 | 360 | 3.2 | 3.2 | 0.00 | 0.00 | 0.00 | 51 | 1018.5 |
| 20260504141121 | 17 | 275 | 4.8 | 6.4 | 0.00 | 0.00 | 0.00 | 60 | 1018.3 |
| 20260504140135 | 16 | 290 | 1.6 | 8.0 | 0.00 | 0.00 | 0.00 | 65 | 1018.2 |
| 20260504130134 | 12 | 289 | 4.8 | 4.8 | 0.00 | 0.00 | 0.00 | 76 | 1018.3 |
| 20260504120115 | 7 | 130 | 0.0 | 0.0 | 0.00 | 0.00 | 0.00 | 89 | 1018.3 |
| 20260504110114 | 5 | 34 | 0.0 | 0.0 | 0.00 | 0.00 | 0.00 | 87 | 1018.4 |
| 20260504100120 | 6 | 261 | 0.0 | 0.0 | 0.00 | 0.00 | 0.00 | 86 | 1018.2 |
| 20260504090118 | 6 | 261 | 0.0 | 0.0 | 0.00 | 0.00 | 0.00 | 83 | 1018.3 |
| 20260504081122 | 7 | 261 | 0.0 | 0.0 | 0.00 | 0.00 | 0.00 | 81 | 1018.1 |
| 20260504080114 | 7 | 261 | 0.0 | 0.0 | 0.00 | 0.00 | 0.00 | 81 | 1018.0 |
| 20260504070115 | 7 | 280 | 0.0 | 0.0 | 0.00 | 0.00 | 0.00 | 77 | 1017.8 |
| 20260504060134 | 8 | 280 | 0.0 | 0.0 | 0.00 | 0.00 | 0.00 | 75 | 1018.1 |